Skip Page Navigation
NASA JPL Caltech
NASA Logo - Jet Propulsion Laboratory + View the NASA Portal
+ Center for Near-Earth Object Studies
JPL Home Earth Solar System Stars & Galaxies Technology
JPL Solar System Dynamics
BODIES ORBITS EPHEMERIDES TOOLS PHYSICAL DATA DISCOVERY FAQ SITE MAP
IMPORTANT: The SSD Announcement email list is now available. Major changes are coming in the near future, including possible hostname and/or URL changes. To be notified of such changes, subscribe to this email list.

Please visit this page for more details.


JPL Small-Body Database Browser
Search: [ help ]  
357160 (2002 CY127)
Classification: Main-belt Asteroid          SPK-ID: 2357160
Ephemeris | Orbit Diagram | Orbital Elements | Mission Design | Physical Parameters | Discovery Circumstances | Close-Approach Data ]

[ show orbit diagram ]
Orbital Elements at Epoch 2458600.5 (2019-Apr-27.0) TDB
Reference: JPL 7 (heliocentric ecliptic J2000)
 Element Value Uncertainty (1-sigma)   Units 
e .2477729636361273 8.9621e-08  
a 3.080934980571957 4.0979e-08 au
q 2.317562589665429 2.7217e-07 au
i 9.20596496295882 1.0236e-05 deg
node 142.0716839299961 8.3298e-05 deg
peri 344.8028234473994 8.9801e-05 deg
M 76.55003004160655 3.0813e-05 deg
tp 2458180.484718895435
(2018-Mar-02.98471890)
0.00016479 TDB
period 1975.250710097177
5.41
3.9408e-05
1.079e-07
d
yr
n .1822553451871884 3.6362e-09 deg/d
Q 3.844307371478485 5.1132e-08 au
  Orbit Determination Parameters
   # obs. used (total)      86  
   data-arc span      6377 days (17.46 yr)  
   first obs. used      2002-01-13  
   last obs. used      2019-06-30  
   planetary ephem.      DE431  
   SB-pert. ephem.      SB431-N16  
   condition code      0  
   norm. resid. RMS      .65393  
   source      ORB  
   producer      Otto Matic  
   solution date      2019-Sep-24 06:42:31  

Additional Information
 Earth MOID = 1.33439 au 
 Jupiter MOID = 1.23868 au 
 T_jup = 3.161 
[ show covariance matrix ]

Ephemeris | Orbit Diagram | Orbital Elements | Mission Design | Physical Parameters | Discovery Circumstances | Close-Approach Data ]

Physical Parameter Table
Parameter Symbol Value Units Sigma Reference Notes
absolute magnitude H 16.7   n/a MPO434255  

357160 (2002 CY127)          Discovered 2002-Feb-07 by LINEAR at Socorro
Reference: 20130327/Numbers.arcLast Updated: 2013-03-29

[ hide close-approach data ]
Close-Approach Data   ...sorted by Date/Time (TDB)
Date/Time (TDB) Time Uncertainty
(days_HH:MM)
Body Nominal Distance (au) Minimum Distance (au) Maximum Distance (au) V-relative (km/s) V-infinity (km/s) JD (TDB) Time Uncertainty (minutes) Semi-major axis (km) Semi-minor axis (km) range-LOV angle (deg) N-sigma BP Orbit Ref. Reference Modified
1902-Nov-10 06:05 00:08 Jupiter 1.24077158312438 1.24076908119013 1.24077408552546 1.92035229715614 1.52395444724971 2416063.753478304 8.11290363512537 1401.00442156052 176.5267116425 87.6645169124917 822642.740227613 T 7 CATAB v2.0f-lin.ifort 2019-Sep-24 06:42:32 2019-Sep-24 06:42
1961-Dec-04 02:41 00:03 Jupiter 1.23116279364493 1.23116182129405 1.23116376599645 1.91222656517919 1.51017841416133 2437637.611558044 2.86677167281658 451.516840697364 178.539962988075 -85.9232679860315 770621.223240966 T 7 CATAB v2.0f-lin.ifort 2019-Sep-24 06:42:32 2019-Sep-24 06:42
2011-May-28 09:47 00:01 Jupiter 1.9366221268855 1.93661978491505 1.93662446885385 2.64880118367198 2.47818593851421 2455709.907743765 1.14222785968626 105.705081205472 40.7132935326152 55.8231283210202 557278.410068452 T 7 CATAB v2.0f-lin.ifort 2019-Sep-24 06:42:32 2019-Sep-24 06:42
2020-Nov-24 01:41 00:01 Jupiter 1.32028256503626 1.32028088217445 1.3202842478983 1.85572754115834 1.46990881463182 2459177.570224669 1.10678482378457 262.987936322699 200.012420171578 66.9091521655268 724960.526647635 T 7 CATAB v2.0f-lin.ifort 2019-Sep-24 06:42:32 2019-Sep-24 06:42
2070-Jan-16 00:01 00:04 Jupiter 1.59323238218824 1.59322799555894 1.59323676886273 1.86846337813647 1.55816553969624 2477127.500972617 4.2229778925212 545.020522138437 241.366667924016 76.0802694667779 725316.27161225 T 7 CATAB v2.0f-lin.ifort 2019-Sep-24 06:42:32 2019-Sep-24 06:42
2079-Aug-03 10:19 00:05 Jupiter 1.62093579108443 1.62093086480781 1.62094071747871 1.57542036930381 1.19868521011585 2480613.929784824 4.61409874853145 1008.91555288588 297.748042414175 62.1892392649766 658309.245117204 T 7 CATAB v2.0f-lin.ifort 2019-Sep-24 06:42:32 2019-Sep-24 06:42
2128-Sep-26 03:47 00:05 Jupiter 1.30433840118445 1.304335256649 1.304341546105 1.94767594654292 1.57945064833222 2498564.657860464 4.59043219342926 1306.23668881778 211.548209110204 84.4661787777163 780333.653235237 T 7 CATAB v2.0f-lin.ifort 2019-Sep-24 06:42:32 2019-Sep-24 06:42
2138-Apr-02 07:50 00:06 Jupiter 1.96042165667754 1.96041601316396 1.96042730041143 1.79694873461926 1.53782377560376 2502039.826722431 5.88347223423718 1263.43853834436 131.97810982777 -87.4646039895371 685524.862045793 T 7 CATAB v2.0f-lin.ifort 2019-Sep-24 06:42:32 2019-Sep-24 06:42
2187-Sep-25 05:05 00:06 Jupiter 1.21565970179953 1.21565836565193 1.21566103815395 1.97999521030765 1.58961061835435 2520112.711937170 6.01274248246041 987.741458003504 174.060073383167 87.9972949282253 759306.563883114 T 7 CATAB v2.0f-lin.ifort 2019-Sep-24 06:42:32 2019-Sep-24 06:42
Ephemeris | Orbit Diagram | Orbital Elements | Mission Design | Physical Parameters | Discovery Circumstances | Close-Approach Data ]
ABOUT SSD CREDITS/AWARDS PRIVACY/COPYRIGHT GLOSSARY LINKS
FirstGov 2020-Jan-20 15:39 UT
(server date/time)  
NASA Home Page
Site Manager:   Ryan S. Park
Webmaster  Alan B. Chamberlin